{"data":{"norad_id":58347,"epoch":"2026-05-24T19:43:37.711200Z","epoch_age_seconds":80539,"freshness":"FRESH","line1":"1 58347U 23175B   26144.82196425 -.00000024  00000+0  00000+0 0  9994","line2":"2 58347   0.0521   5.4627 0004582  51.3774 303.2031  5.00116099 47180","mean_motion":5.00116099,"eccentricity":0.0004582,"inclination_deg":0.0521,"raan_deg":5.4627,"arg_perigee_deg":51.3774,"mean_anomaly_deg":303.2031,"bstar":0,"rev_number":4718,"period_min":287.93314250018,"perigee_km":8059.2604370139,"apogee_km":8072.4969329876,"semimajor_km":14444.015685001,"source":"CELESTRAK","updated_at":"2026-05-25T13:38:14.519999Z"}}